Regional Weather Roundup
Issued by NWS State College, PA

Home | Current Version | Previous Version | Text Only | Print | Product List | Glossary On
Versions: 1 2 3 4 5 6 7 8 9 10 11 12 13 14 15 16 17 18 19 20 21 22 23 24 25 26 27 28 29 30 31 32 33 34 35 36 37 38 39 40 41 42 43 44 45 46 47 48 49 50
000
ASUS41 KCTP 301403
RWRCTP

REGIONAL WEATHER ROUNDUP
NATIONAL WEATHER SERVICE STATE COLLEGE PA
1000 AM EDT THU JUL 30 2015

Note: "fair" indicates few or no clouds below 12,000 feet with no
significant weather and/or obstructions to visibility.

* = STATION THAT DOES NOT REPORT PRECIPITATION /E.G. RAIN...SNOW...ETC/
    THUNDER OR FOG.

PAZ002>004-007>009-013>016-020>023-029>032-301500-
WESTERN PENNSYLVANIA

CITY           SKY/WX    TMP DP  RH WIND       PRES   REMARKS
ERIE           SUNNY     77  63  61 W10       29.93S
MEADVILLE      LGT RAIN  76  61  59 W10       29.98R
FRANKLIN*      MOSUNNY   75  61  60 W8        29.99S
NEW CASTLE     FAIR      79  64  59 W7        29.98S
BEAVER COUNTY  SUNNY     77  61  57 NW6       29.99R
BUTLER*        SUNNY     77  61  57 N6        30.00R
PITTSBURGH INT MOSUNNY   79  59  50 NW9       29.98S
PITTSBURGH     SUNNY     78  54  43 NW8       29.97S
INDIANA*       CLOUDY    75  68  78 W5        30.01S
LATROBE        MOSUNNY   75  64  69 CALM      29.99S
WASHINGTON CO* NOT AVBL
$$

PAZ004>006-010>012-017>019-024>028-033>037-041-042-045-046-049>053-301500-
CENTRAL PENNSYLVANIA

CITY           SKY/WX    TMP DP  RH WIND       PRES   REMARKS
BRADFORD       MOSUNNY   73  62  68 NW13      29.97S
DUBOIS         MOSUNNY   76  62  62 W7        29.97R
CLEARFIELD     MOSUNNY   77  64  64 W6        29.96R
JOHNSTOWN      PTSUNNY   71  66  84 W7        30.01S
ALTOONA        LGT RAIN  73  71  93 SW5       29.97F FOG
STATE COLLEGE  CLOUDY    72  72 100 CALM      29.93F FOG
WILLIAMSPORT   LGT RAIN  74  71  91 W6        29.88S FOG
SELINSGROVE    CLOUDY    80  74  81 CALM      29.89S
FT INDIANTOWN  CLOUDY    79  74  84 W5        29.90F
CAPITAL CITY   MOSUNNY   81  73  76 W9        29.89F
HARRISBURG     MOSUNNY   83  73  72 CALM      29.88F
YORK           MOSUNNY   82  74  76 W7        29.90F
$$

PAZ038>040-043-044-047-048-054-055-060>062-067>071-301500-
EASTERN PENNSYLVANIA

CITY           SKY/WX    TMP DP  RH WIND       PRES   REMARKS
SCRANTON       CLOUDY    80  72  76 SW8       29.89F
MOUNT POCONO     N/A    N/A N/A N/A MISG      29.95F
ALLENTOWN      CLOUDY    81  74  79 SW8       29.89F
QUAKERTOWN*    CLOUDY    81  75  83 S6        29.91F
READING        CLOUDY    81  73  76 SW9       29.88F
LANCASTER      CLOUDY    80  74  81 SW7       29.90F
COATESVILLE    CLOUDY    77  75  94 SW3       29.93S
POTTSTOWN      CLOUDY    80  75  84 SW7       29.91F
BLUE BELL      CLOUDY    82  75  78 SW7       29.89F
DOYLESTOWN     CLOUDY    78  74  87 VRB5      29.90F
WILLOW GROVE   NOT AVBL
NORTH PHILA    MOSUNNY   85  71  63 S10G18    29.91F
PHILADELPHIA   PTSUNNY   85  73  67 S14       29.90F
$$


USA.gov is the U.S. government's official web portal to all federal, state and local government web resources and services.